ONEWEB-0317 (49103 NORAD) Tracking and Keplerian Element Data

This shows tracking and keplerian element data for the satellite.

Feedback or suggestion? Click here.




ElementValue
Catalog49103
NameONEWEB-0317
Epoch Orbit1140
Epoch Day300.91667824
Epoch Year2021
RAAN344.0315
Inclination87.5342
Eccentricity0.0021319
Argument of Perigee66.2252
Mean Anonmoly236.1459
Mean Motion14.85809857
Decay Rate0.00026987
L11 49103U 21075AE 21300.91667824 .00026987 00000-0 30798-2 0 9992
L22 49103 87.5342 344.0315 0021319 66.2252 236.1459 14.85809857 11408

Live tracking and technical data element details for ONEWEB-0317 (NORAD 49103). ONEWEB-0317 can be tracked NOW for your location showing map with azimuth and elevation plus other details from your city location.

Track the satellite on the map from your city or location and see movement details for azimuth, elevation, latitude, longitude, range, height, and movement on the map or in text.







IsCatalogInMostPopularTable: catalog: 49103, numindb: 14
Update: records affected: 1



GetName: 49103 ONEWEB-0317

Hit Count: updated at: Thu, 28 Oct 2021 11:56:22 GMT